Погода в Липско

Польша     51°09′21″N   21°39′09″E
темп.,
°C
ветер,
м/с
пор.,
м/с
влажн.,
%
обл.,
%
осадки,
мм/ч
давл.,
гПа
погр.,
м
1 марта, пн
пн101:00+3ссз61091100 0.0 1032449
04:00+2ссз4693100 0.0 1033327
07:00+2сз3593100 0.0 1034259
10:00+3сз3484100 0.0 1035415
13:00+5сз457487 0.0 1035635
16:00+4зсз458090 0.0 1035560
19:00+3з258492 0.0 1035352
22:00+1з379514 0.0 1035162
2 марта, вт
вт201:000зюз489512 0.0 1035192
04:000з38950 0.0 1033240
07:00+1з411930 0.0 1033286
10:00+6зсз610720 0.0 1032488
13:00+10зсз610600 0.0 1031656
16:00+9зсз510620 0.0 1030584
19:00+5зсз49800 0.0 1031177
22:00+3сз34890 0.0 103273
3 марта, ср
ср301:00+2сз23900 0.0 103332
04:00+1зсз22920 0.0 103122
07:00+1зсз11930 0.0 103122
10:00+6зюз22710 0.0 1030343
13:00+9юз23560 0.0 1029717
16:00+10зюз12540 0.0 102527
19:00+5юз23696 0.0 102422
22:00+4ююз447767 0.0 102280
4 марта, чт
чт401:00+3юз488055 0.0 1020149
04:00+3зюз511870 0.0 1017241
07:00+3зюз512880 0.0 1016295
10:00+9з7116839 0.0 1014848
13:00+11з7116454 0.0 10121221
16:00+10з596794 0.0 10101128
19:00+7зюз378296 0.1 1010194
22:00+6зсз41084100 0.2 1009509
5 марта, пт
пт501:00+3с5794100 2.8 1008349
04:00+2сз5896100 1.1 1009496
07:00−1с61083100 1.4 1012749
10:00+1с6854100 0.0 10151003
13:00+3с684165 0.0 10171678
16:00+3ссз574612 0.0 10181863
19:000ссз4106733 0.1 1021629
22:00−2сз237773 0.1 102376